SCP
0 0 0 0 0 0 0 0 0 0 0 0 0 1 2 2 2 2 2 2 4 4 3 2 2 2 3 4 6 6 5 5 5 5 4 4 5 9 14 13 10 6 4 3
0 0 0 0 0 0 0 0 0 0 0 0 1 1 2 2 2 1 2 2 4 4 4 3 3 2 3 4 5 6 5 5 5 5 4 4 5 9 11 10 7 5 4 4
0 0 0 0 0 0 0 0 0 0 0 0 1 2 2 2 2 1 2 2 4 4 4 4 3 3 3 4 5 5 5 5 5 4 4 4 4 5 6 5 4 4 4 4
0 0 0 0 0 0 0 0 0 0 1 1 1 1 2 2 2 2 2 2 3 4 4 5 4 3 3 4 4 5 6 6 5 4 3 3 3 3 2 3 3 4 4 4
0 0 0 0 0 0 0 0 0 0 1 1 1 1 2 2 2 2 2 2 2 3 4 5 5 4 3 3 4 5 6 6 5 4 3 3 2 2 2 2 3 4 4 3
0 0 0 0 0 0 0 0 0 0 1 1 1 1 1 1 2 2 2 2 2 2 4 5 5 4 3 3 4 5 5 5 5 4 3 3 2 2 2 2 3 4 3 3
0 0 0 0 0 0 0 0 1 1 1 1 1 1 1 1 1 2 2 2 2 2 3 5 5 5 4 3 4 5 5 5 5 4 3 3 2 2 2 2 3 3 2 2
0 0 0 0 0 0 0 1 1 1 0 1 1 2 2 1 1 2 3 3 2 2 3 4 5 5 4 4 4 5 5 6 5 4 3 3 3 2 2 2 3 2 2 2
0 0 0 0 0 0 0 1 1 1 0 0 1 2 2 2 2 2 3 3 2 2 2 3 4 5 5 4 4 5 5 5 6 5 4 3 3 3 3 2 2 2 2 2
0 0 0 0 0 0 0 1 1 1 1 0 1 2 2 2 2 3 4 4 3 3 2 3 4 5 5 5 4 5 5 6 6 5 5 4 4 3 3 3 3 3 3 3
0 0 0 0 0 0 1 1 1 1 1 1 1 1 2 2 2 2 4 5 4 3 3 4 5 6 6 5 5 5 6 6 6 6 6 5 4 4 4 4 4 4 4 4
1 0 0 0 1 1 1 1 1 1 1 1 1 2 2 2 2 2 4 6 5 4 4 5 6 7 6 5 5 6 7 7 8 7 6 5 5 5 5 5 6 6 6 6
1 0 0 0 1 1 1 0 1 1 1 1 1 2 3 3 3 3 5 6 5 4 5 5 6 6 6 5 6 7 8 8 9 8 7 6 6 6 6 6 7 7 7 7
0 0 0 0 1 0 0 0 0 0 0 1 1 2 3 3 3 4 6 5 4 4 4 5 6 6 7 8 9 9 9 10 10 9 8 8 7 6 6 6 7 7 7 7
0 0 0 0 0 0 0 0 0 0 0 1 1 2 3 3 4 6 6 5 3 3 4 6 7 9 11 12 12 12 12 12 11 10 9 9 8 7 7 6 6 7 7 6
0 0 0 0 0 0 0 0 0 0 1 1 1 2 3 5 6 7 7 6 5 5 6 8 10 13 14 13 13 13 12 10 9 9 9 9 9 9 9 8 8 8 8 7
0 0 0 0 0 0 1 1 1 1 2 2 2 2 4 6 7 8 8 7 7 7 8 10 13 14 14 13 13 13 12 9 8 8 7 8 10 12 12 11 11 10 10 10
0 1 1 0 0 1 1 1 1 2 3 3 3 3 5 6 7 7 7 7 7 8 10 13 15 14 12 12 13 12 11 10 9 8 7 7 10 13 15 14 13 12 12 12
0 1 1 1 0 1 1 1 2 3 3 3 3 3 4 5 5 5 6 8 8 9 12 16 17 14 12 11 10 11 11 11 10 8 7 8 11 15 17 15 13 13 13 13
0 1 1 0 0 1 1 2 2 2 2 2 3 3 4 4 5 5 6 9 12 13 16 17 15 13 12 10 10 11 11 10 9 8 9 10 13 16 15 13 12 12 13 13
1 1 1 1 1 1 1 2 2 3 3 3 3 3 4 4 5 6 8 10 14 16 16 15 13 12 11 10 11 11 11 10 9 9 10 11 13 14 13 11 11 11 11 11
1 1 1 1 1 2 2 3 3 3 3 4 4 3 4 5 6 8 10 11 12 13 13 13 13 12 9 9 10 10 10 9 9 11 11 11 12 12 11 10 10 9 8 7
1 1 1 2 2 2 3 3 3 3 3 4 4 3 3 5 6 8 12 14 12 10 9 10 11 10 8 9 9 9 10 10 10 11 12 12 12 12 11 9 8 7 6 5
1 1 2 2 2 2 2 3 3 2 2 3 3 3 3 4 5 7 11 16 17 13 10 10 9 8 8 10 11 11 11 11 11 12 12 13 13 12 10 8 6 5 5 4
1 1 2 2 2 1 1 1 1 1 2 2 2 2 3 3 3 5 9 15 19 19 17 16 14 11 11 12 12 12 12 12 13 13 13 13 12 11 10 7 5 4 3 3
1 1 1 2 2 2 1 1 1 1 1 2 2 2 2 2 3 4 8 13 18 21 23 23 19 15 13 13 12 11 11 12 14 14 13 12 11 10 8 7 4 3 2 2
Wind_Speed
11 10 7 6 9 11 9 3 3 2 3 3 4 7 10 10 10 11 10 10 10 10 10 10 10 10 9 8 7 5 4 4 2 2 1 1 1 1 1 1 1 1 0 0
9 11 10 10 10 10 8 5 4 3 4 3 1 2 7 9 10 10 11 11 11 11 11 10 9 9 9 8 7 6 4 4 3 2 1 1 1 1 2 1 1 1 1 0
13 11 10 12 10 8 6 7 6 5 4 4 1 0 3 7 9 10 10 11 12 13 13 11 9 9 9 9 8 6 5 4 3 3 2 1 1 0 1 1 1 1 1 0
13 12 12 13 10 7 6 7 8 6 5 5 3 2 5 6 8 10 10 10 11 13 13 13 10 9 9 9 9 7 6 4 4 3 2 2 2 1 1 1 1 1 0 0
13 12 12 11 9 7 8 9 9 7 5 6 4 2 5 7 6 9 10 11 10 12 14 14 13 10 9 10 10 8 6 5 4 3 2 2 1 1 1 1 1 1 1 0
16 13 11 10 9 7 8 10 9 6 4 7 6 4 4 5 7 9 11 12 12 11 13 14 13 11 9 9 9 9 7 5 4 4 3 2 1 0 0 0 1 1 1 1
17 15 12 10 11 9 9 8 5 5 5 6 3 1 1 5 7 8 10 11 12 11 12 13 12 11 9 10 10 10 8 6 5 4 3 2 1 1 1 1 1 1 0 1
14 13 14 13 13 10 10 9 6 6 7 5 2 1 2 2 4 7 8 10 11 12 12 12 12 12 10 10 10 10 9 7 6 5 3 2 2 2 1 1 0 0 0 1
12 11 12 10 10 11 10 8 7 7 9 6 1 2 3 3 4 7 8 9 10 10 12 13 13 12 11 10 10 10 9 7 6 5 4 3 2 1 0 0 1 1 0 1
13 11 11 8 9 12 12 10 6 6 5 6 4 2 2 6 6 6 7 7 10 11 10 10 11 12 11 10 10 10 9 7 6 6 4 4 3 2 1 1 0 0 1 1
13 11 12 9 10 10 9 11 8 6 5 5 4 2 3 5 6 6 6 7 8 9 10 11 10 10 9 9 10 10 9 8 6 5 4 4 3 3 2 1 1 0 1 1
9 9 11 11 9 9 11 11 10 7 6 5 4 2 1 4 7 9 7 5 8 7 7 9 9 9 9 9 8 8 9 8 7 6 5 4 3 2 2 2 1 1 0 0
6 7 9 10 8 8 9 11 11 10 6 5 5 3 3 3 6 9 8 7 8 9 8 8 9 8 8 8 8 7 8 8 7 7 6 4 3 3 2 1 1 1 1 0
6 9 9 11 8 7 10 12 12 10 7 6 4 3 4 3 5 7 8 7 8 8 7 8 8 7 6 6 6 6 5 6 6 6 6 5 3 3 2 1 1 1 1 1
8 11 11 12 12 12 12 12 12 10 9 8 6 3 6 5 5 6 7 7 7 7 8 8 7 7 6 6 5 5 5 4 5 5 5 5 4 3 2 2 1 1 1 1
8 10 10 11 13 14 13 11 12 12 11 9 5 3 3 7 6 6 6 7 7 6 7 8 8 7 6 6 6 5 4 4 4 4 4 4 3 3 2 2 2 1 1 1
8 8 10 11 12 12 14 12 11 10 11 9 5 3 5 6 8 7 7 6 6 6 5 6 7 6 6 6 6 6 5 4 4 4 3 3 3 3 2 2 2 1 1 1
8 7 7 10 11 14 9 7 9 8 7 5 1 3 5 6 7 7 6 5 5 6 6 6 7 6 6 7 7 5 5 5 5 4 3 3 3 3 2 2 2 1 1 1
10 8 8 9 11 11 10 7 7 7 4 3 3 3 3 6 7 6 6 5 4 6 6 6 6 6 6 6 7 6 5 4 4 4 3 3 3 2 2 2 2 2 1 1
11 8 9 10 11 11 6 4 4 5 2 5 6 4 2 3 3 4 6 5 5 6 5 5 5 5 6 6 6 6 5 5 4 3 3 2 2 2 2 2 2 2 2 2
10 9 10 11 11 7 4 4 3 4 2 6 5 4 3 3 2 4 6 6 5 5 5 5 5 5 5 6 6 5 5 4 4 3 3 2 2 2 3 2 1 1 2 2
9 8 8 8 10 6 6 4 3 4 5 5 5 5 4 6 6 6 7 6 5 4 4 4 5 4 4 5 5 5 4 4 3 3 3 2 2 2 1 1 1 1 1 2
5 3 3 2 1 2 5 6 5 4 4 4 4 4 4 5 5 6 6 5 4 4 4 4 4 4 4 4 4 4 3 3 3 3 3 2 2 1 1 1 1 1 2 2
2 2 2 2 1 2 3 4 4 3 3 4 3 3 3 4 5 6 5 4 4 3 4 4 4 4 4 4 3 3 3 3 3 3 3 3 3 2 2 1 1 1 1 1
5 3 3 3 0 1 3 3 3 4 4 4 3 4 4 4 4 4 4 3 3 2 2 3 3 3 4 4 4 3 3 3 3 3 3 3 3 3 2 2 1 1 1 2
5 4 4 2 2 0 2 4 4 3 3 3 2 2 3 3 3 3 3 3 2 2 2 3 3 4 4 4 4 3 3 3 3 3 3 3 2 2 3 3 2 1 1 2
Wind_Direction
240 249 251 236 227 244 263 278 294 253 233 227 206 171 169 175 174 165 163 161 156 153 152 152 150 146 144 139 139 139 138 130 135 142 173 181 185 174 141 137 133 129 37 4
244 249 255 260 251 257 276 289 268 280 262 264 264 158 163 174 176 171 168 166 158 155 150 154 155 153 150 146 147 147 150 146 154 150 165 182 167 170 153 124 136 144 134 310
241 245 249 258 260 274 289 289 287 276 277 283 210 173 211 179 171 173 168 165 163 159 157 157 161 161 156 153 156 155 150 150 153 152 158 152 131 140 126 157 166 169 169 192
246 249 251 256 257 261 276 274 277 283 284 284 262 236 223 200 180 172 165 164 164 160 158 157 163 167 160 158 155 148 148 149 149 167 168 175 181 183 182 185 176 154 154 308
246 242 246 256 267 270 275 286 285 293 293 285 274 242 229 196 180 173 166 164 172 162 157 158 162 164 162 161 156 149 146 152 155 173 162 188 190 190 167 154 152 169 163 213
258 254 252 260 262 265 280 285 295 311 287 262 250 220 213 184 177 181 166 164 164 156 153 154 156 157 163 158 153 147 146 151 160 170 166 195 187 158 23 179 136 203 168 174
246 250 249 254 258 251 252 262 280 290 266 253 233 207 224 168 175 170 157 158 153 152 152 152 154 155 162 157 154 147 149 156 163 165 165 184 186 194 209 256 188 258 226 123
239 239 233 231 244 251 249 253 250 273 282 293 270 149 136 137 139 141 146 153 150 153 153 154 156 156 160 157 152 149 154 160 166 167 163 160 175 213 212 233 260 243 270 38
247 248 236 227 235 249 256 255 248 257 266 273 262 160 158 162 145 139 147 152 151 151 153 154 156 157 161 161 156 153 152 158 163 164 157 158 179 190 198 170 227 289 312 106
253 265 262 227 237 239 250 263 274 278 291 301 300 267 196 163 165 157 155 166 156 150 149 148 154 158 161 160 154 149 148 152 158 153 165 162 170 164 174 217 235 342 352 19
244 259 266 246 229 244 240 248 254 268 282 287 292 284 183 182 167 159 159 173 151 146 149 148 150 147 147 153 151 149 150 155 156 154 160 148 158 165 169 175 190 132 346 16
239 252 259 255 250 250 259 261 263 261 258 265 277 281 190 167 159 145 147 153 137 138 141 139 139 142 150 149 150 155 154 157 157 156 154 152 152 162 175 178 184 163 189 257
256 253 259 261 254 245 255 267 272 280 275 264 261 226 171 176 146 139 143 155 145 144 146 139 139 143 147 145 147 152 157 159 159 159 156 153 158 162 167 164 153 153 164 204
267 257 257 262 267 265 251 259 266 272 276 276 257 186 172 177 140 139 145 151 144 147 142 142 139 138 137 135 132 138 149 152 152 150 152 150 161 166 162 168 156 162 175 181
254 254 249 254 262 264 261 262 266 267 272 277 276 242 186 164 144 147 149 146 146 153 151 143 139 133 129 128 130 135 141 138 137 142 153 153 163 165 155 165 160 177 218 207
248 269 269 258 256 259 267 270 269 266 263 262 251 264 109 119 128 143 144 156 159 157 149 142 136 135 138 140 141 140 143 138 130 136 147 146 154 161 167 165 161 197 230 262
245 258 269 269 266 260 256 259 266 269 272 267 258 207 146 140 145 149 153 155 139 135 138 143 139 143 149 149 145 152 149 147 143 147 152 150 155 164 170 177 165 200 220 230
241 255 261 266 268 263 261 270 271 274 293 312 31 105 134 137 130 128 130 135 139 142 151 144 145 155 162 155 147 148 156 153 153 156 161 168 170 175 170 174 177 199 211 221
243 237 253 263 264 261 266 271 272 267 278 353 59 72 92 107 117 111 109 124 140 140 137 140 154 159 147 145 144 146 162 156 157 162 174 184 184 177 177 184 193 207 216 238
239 225 236 250 261 263 272 294 325 292 234 42 62 59 82 113 142 119 109 105 110 120 126 134 142 134 132 136 142 149 157 153 161 164 171 172 177 176 187 199 210 211 213 224
232 232 238 249 256 258 309 315 301 270 65 44 59 57 48 71 71 108 109 101 94 97 110 115 118 119 127 134 136 144 152 159 155 150 150 159 168 183 185 184 196 215 222 208
242 237 241 253 258 265 353 352 30 69 71 57 58 54 50 74 93 98 101 102 103 107 109 122 123 120 122 129 138 147 151 145 138 145 155 166 174 205 168 167 199 212 225 228
249 267 262 265 278 33 29 47 52 52 66 67 57 59 77 97 105 105 105 105 113 122 125 126 123 121 124 129 145 153 144 140 144 151 157 167 173 188 162 196 211 218 209 232
274 348 317 325 94 69 58 54 58 55 58 57 46 63 88 93 102 107 110 112 112 115 127 124 129 139 136 133 136 134 133 144 155 164 171 184 189 185 167 198 202 217 220 247
312 293 272 260 22 47 51 37 38 63 62 53 44 55 67 77 84 97 99 104 114 119 127 135 140 148 144 137 132 141 149 153 167 185 196 211 207 186 190 196 209 195 166 191
300 302 283 297 69 37 55 26 3 24 64 67 51 65 75 83 99 106 108 110 123 136 135 148 156 160 153 148 150 158 165 173 189 209 210 217 218 202 203 196 187 87 186 177